This is the latest recevied weather packets stored in our database for station/object KJ5BMY-13. If no packets are shown the sender has not sent any weather packets the latest 1 day(s).
| Time | Temp. | Humidity | Pressure | Rain* | Wind** | Luminosity | Snow |
|---|---|---|---|---|---|---|---|
| 1778043682 | 17.78° C | 76% | 1011.8 hPa | 0 mm | 0 m/s | - | - |
| 1778043379 | 17.78° C | 76% | 1011.5 hPa | 0 mm | 0.45 m/s, 0° | - | - |
| 1778043075 | 17.78° C | 76% | 1011.5 hPa | 0 mm | 0.45 m/s, 231° | - | - |
| 1778042773 | 18.33° C | 76% | 1011.6 hPa | 0 mm | 0.89 m/s, 273° | - | - |
| 1778042469 | 18.33° C | 76% | 1011.5 hPa | 0 mm | 0.45 m/s, 210° | - | - |
| 1778042167 | 18.33° C | 76% | 1011.6 hPa | 0 mm | 0 m/s | - | - |
| 1778041865 | 18.33° C | 76% | 1011.5 hPa | 0 mm | 0.89 m/s, 79° | - | - |
| 1778041564 | 18.33° C | 77% | 1011.3 hPa | 0 mm | 0.89 m/s, 63° | - | - |
| 1778041261 | 18.33° C | 76% | 1011.4 hPa | 0 mm | 0.45 m/s, 320° | - | - |
| 1778040960 | 18.89° C | 76% | 1010.9 hPa | 0 mm | 0 m/s | - | - |
| 1778040656 | 18.89° C | 76% | 1010.9 hPa | 0 mm | 0 m/s | - | - |
| 1778040354 | 18.89° C | 76% | 1010.9 hPa | 0 mm | 0.45 m/s, 339° | - | - |
| 1778040050 | 19.44° C | 76% | 1011 hPa | 0 mm | 0.89 m/s, 289° | - | - |
| 1778039747 | 19.44° C | 75% | 1010.9 hPa | 0 mm | 0 m/s | - | - |
| 1778039444 | 20° C | 75% | 1010.8 hPa | 0 mm | 0.45 m/s, 227° | - | - |
| 1778039146 | 20° C | 75% | 1010.7 hPa | 0 mm | 0 m/s | - | - |
| 1778038838 | 20.56° C | 75% | 1010.9 hPa | 0 mm | 0.45 m/s, 294° | - | - |
| 1778038535 | 20.56° C | 75% | 1010.5 hPa | 0 mm | 0.89 m/s, 339° | - | - |
| 1778038232 | 20.56° C | 75% | 1010.4 hPa | 0 mm | 0.89 m/s, 13° | - | - |
| 1778037930 | 20.56° C | 74% | 1010.7 hPa | 0 mm | 0.45 m/s, 291° | - | - |
| 1778037626 | 21.11° C | 75% | 1010.3 hPa | 0 mm | 0.45 m/s, 236° | - | - |
| 1778037324 | 21.11° C | 75% | 1010 hPa | 0 mm | 0 m/s | - | - |
| 1778037021 | 21.11° C | 74% | 1010.3 hPa | 0 mm | 0.45 m/s, 227° | - | - |
| 1778036719 | 21.67° C | 73% | 1010.3 hPa | 0 mm | 0.45 m/s, 356° | - | - |
| 1778036416 | 21.67° C | 73% | 1010 hPa | 0 mm | 0.45 m/s, 61° | - | - |
* Rain latest hour (hover to see other rain measurements)
** Current wind speed in m/s (hover to see current wind gust speed)